Location: Washington
(38.8950°N, 77.0370°W)
Time: 22:35:46
(UTC-04:00)

ISS - All Passes

Search period start: 23 August 2016 00:00
Search period end: 02 September 2016 00:00
Orbit: 400 x 403 km, 51.6° (Epoch: 23 August)

Date Brightness Start Highest point End Pass type
(mag) Time Alt. Az. Time Alt. Az. Time Alt. Az.
23 Aug - 09:38:51 10° SSE 09:40:07 12° SE 09:41:23 10° ESE daylight
23 Aug - 11:12:55 10° WSW 11:16:08 65° NW 11:19:23 10° NE daylight
23 Aug - 12:51:14 10° NW 12:53:04 14° NNW 12:54:54 10° NNE daylight
23 Aug - 16:05:55 10° NNW 16:08:10 17° NNE 16:10:24 10° ENE daylight
23 Aug - 17:41:41 10° NW 17:44:56 81° SW 17:48:11 10° SE daylight
24 Aug - 10:19:50 10° SW 10:23:02 60° SE 10:26:15 10° ENE daylight
24 Aug - 11:57:14 10° WNW 11:59:42 20° NNW 12:02:11 10° NNE daylight
24 Aug - 15:13:14 10° NNW 15:14:46 13° NNE 15:16:18 10° NE daylight
24 Aug - 16:48:37 10° NW 16:51:49 49° NE 16:54:58 10° ESE daylight
24 Aug - 18:25:55 10° W 18:27:56 15° SW 18:29:56 10° SSW daylight
25 Aug - 09:27:11 10° SSW 09:30:02 28° SE 09:32:53 10° ENE daylight
25 Aug - 11:03:28 10° W 11:06:24 30° NNW 11:09:20 10° NE daylight
25 Aug - 12:42:59 10° NNW 12:43:39 10° N 12:44:19 10° N daylight
25 Aug - 14:20:52 10° N 14:21:19 10° N 14:21:44 10° NNE daylight
25 Aug - 15:55:42 10° NNW 15:58:35 28° NNE 16:01:27 10° E daylight
25 Aug - 17:32:04 10° WNW 17:35:00 31° SW 17:37:54 10° SSE daylight
26 Aug - 08:35:17 10° SSE 08:37:06 14° SE 08:38:55 10° E daylight
26 Aug - 10:10:00 10° WSW 10:13:11 54° NW 10:16:24 10° NE daylight
26 Aug - 11:48:32 10° NW 11:50:11 13° NNW 11:51:50 10° NNE daylight
26 Aug - 15:02:53 10° NNW 15:05:16 19° NNE 15:07:39 10° ENE daylight
26 Aug - 16:38:43 10° WNW 16:41:58 67° SW 16:45:11 10° SE daylight
27 Aug - 09:16:49 10° SW 09:20:03 74° SE 09:23:19 10° NE daylight
27 Aug - 10:54:27 10° WNW 10:56:46 18° NNW 10:59:07 10° NNE daylight
27 Aug - 14:10:08 10° NNW 14:11:52 14° NNE 14:13:36 10° NE daylight
27 Aug - 15:45:37 10° NW 15:48:51 59° NE 15:52:03 10° ESE daylight
27 Aug - 17:23:19 10° W 17:24:53 13° SW 17:26:27 10° SSW daylight
28 Aug - 08:24:01 10° SSW 08:27:00 34° SE 08:30:00 10° ENE daylight
28 Aug - 10:00:37 10° W 10:03:27 26° NNW 10:06:17 10° NNE daylight
28 Aug - 13:17:35 10° N 13:18:24 11° NNE 13:19:13 10° NNE daylight
28 Aug - 14:52:38 10° NW 14:55:37 32° NNE 14:58:35 10° E daylight
28 Aug - 16:29:11 10° WNW 16:31:58 26° SW 16:34:42 10° SSE daylight
29 Aug - 07:31:50 10° S 07:34:02 17° SE 07:36:14 10° E daylight
29 Aug - 09:07:03 10° WSW 09:10:11 45° NW 09:13:21 10° NE daylight
29 Aug - 10:45:49 10° NW 10:47:15 12° NNW 10:48:42 10° N daylight
29 Aug - 13:59:46 10° NNW 14:02:18 20° NNE 14:04:51 10° ENE daylight
29 Aug - 15:35:44 10° WNW 15:38:56 54° SW 15:42:06 10° SE daylight
30 Aug - 08:13:46 10° SW 08:17:01 89° SE 08:20:17 10° NE daylight
30 Aug - 09:51:39 10° WNW 09:53:49 16° NNW 09:56:00 10° NNE daylight
30 Aug - 13:07:00 10° NNW 13:08:55 15° NNE 13:10:50 10° NE daylight
30 Aug - 14:42:34 10° NW 14:45:49 71° NE 14:49:03 10° ESE daylight
30 Aug - 16:21:00 10° WSW 16:21:48 11° SW 16:22:35 10° SW daylight
31 Aug - 07:20:51 10° SSW 07:23:56 41° SE 07:27:02 10° ENE daylight
31 Aug - 08:57:44 10° W 09:00:27 24° NNW 09:03:10 10° NNE daylight
31 Aug - 12:14:20 10° N 12:15:27 11° NNE 12:16:33 10° NNE daylight
31 Aug - 13:49:33 10° NW 13:52:36 37° NNE 13:55:39 10° ESE daylight
31 Aug - 15:26:18 10° W 15:28:52 22° SW 15:31:25 10° S daylight
01 Sep - 06:28:27 10° S 06:30:55 20° SE 06:33:24 10° E daylight
01 Sep - 08:04:04 10° WSW 08:07:09 39° NNW 08:10:15 10° NE daylight
01 Sep - 09:43:04 10° NW 09:44:17 12° NNW 09:45:30 10° N daylight
01 Sep - 12:56:38 10° NNW 12:59:18 23° NNE 13:01:58 10° E daylight
01 Sep - 14:32:44 10° WNW 14:35:51 44° SW 14:38:57 10° SSE daylight
